Satellite-Ground Cal/Val Region Overpasses Predictions

Prediction of Satellite NPP Overpassing Cal/Val Region: PacNW

Region Location: (Latitude: 10.00, Longitude: 139.50) to (Latitude: 22.70, Longitude: 165.60).

Table of predicted overpasses for the next 14.0 days since TLE Epoch: 11/11/2023
Interval Starting Time Starting Location Ending Time Ending Location
1 11/11/2023 15:24:34 ( 22.69, 153.91) 11/11/2023 15:28:10 ( 10.01, 150.90)
2 11/12/2023 02:33:40 ( 10.06, 161.43) 11/12/2023 02:37:15 ( 22.68, 158.43)
3 11/12/2023 15:05:33 ( 22.66, 158.66) 11/12/2023 15:09:08 ( 10.04, 155.66)
4 11/13/2023 02:15:23 ( 12.67, 165.59) 11/13/2023 02:18:13 ( 22.64, 163.20)
5 11/13/2023 03:56:08 ( 10.03, 140.82) 11/13/2023 03:57:44 ( 15.67, 139.51)
6 11/13/2023 14:46:30 ( 22.69, 163.43) 11/13/2023 14:50:06 ( 10.01, 160.41)
7 11/14/2023 03:37:06 ( 10.06, 145.57) 11/14/2023 03:40:41 ( 22.68, 142.57)
8 11/14/2023 14:30:33 ( 11.86, 165.59) 11/14/2023 14:31:04 ( 10.04, 165.18)
9 11/14/2023 16:08:59 ( 22.66, 142.80) 11/14/2023 16:12:34 ( 10.03, 139.80)
10 11/15/2023 03:18:04 ( 10.03, 150.33) 11/15/2023 03:21:39 ( 22.65, 147.33)
11 11/15/2023 15:49:56 ( 22.69, 147.56) 11/15/2023 15:53:32 ( 10.00, 144.55)
12 11/16/2023 02:59:01 ( 10.00, 155.10) 11/16/2023 03:02:37 ( 22.68, 152.08)
13 11/16/2023 15:30:55 ( 22.65, 152.31) 11/16/2023 15:34:30 ( 10.03, 149.31)
14 11/17/2023 02:40:00 ( 10.03, 159.85) 11/17/2023 02:43:35 ( 22.66, 156.85)
15 11/17/2023 15:11:53 ( 22.68, 157.08) 11/17/2023 15:15:28 ( 10.06, 154.08)
16 11/18/2023 02:20:57 ( 10.01, 164.61) 11/18/2023 02:24:33 ( 22.69, 161.60)
17 11/18/2023 14:52:51 ( 22.64, 161.82) 11/18/2023 14:56:26 ( 10.02, 158.83)
18 11/19/2023 03:43:26 ( 10.05, 143.98) 11/19/2023 03:47:01 ( 22.67, 140.98)
19 11/19/2023 14:34:58 ( 18.62, 165.59) 11/19/2023 14:37:24 ( 10.04, 163.59)
20 11/19/2023 16:15:19 ( 22.66, 141.21) 11/19/2023 16:17:19 ( 15.62, 139.50)
21 11/20/2023 03:24:23 ( 10.03, 148.74) 11/20/2023 03:27:58 ( 22.65, 145.74)
22 11/20/2023 15:56:16 ( 22.68, 145.97) 11/20/2023 15:59:51 ( 10.06, 142.97)
23 11/21/2023 03:05:21 ( 10.01, 153.51) 11/21/2023 03:08:57 ( 22.69, 150.49)
24 11/21/2023 15:37:14 ( 22.70, 150.74) 11/21/2023 15:40:50 ( 10.02, 147.72)
25 11/22/2023 02:46:19 ( 10.05, 158.25) 11/22/2023 02:49:54 ( 22.67, 155.25)
26 11/22/2023 15:18:12 ( 22.66, 155.48) 11/22/2023 15:21:47 ( 10.04, 152.48)
27 11/23/2023 02:27:17 ( 10.03, 163.02) 11/23/2023 02:30:52 ( 22.65, 160.02)
28 11/23/2023 14:59:10 ( 22.68, 160.25) 11/23/2023 15:02:45 ( 10.05, 157.25)
29 11/24/2023 02:10:53 ( 19.35, 165.59) 11/24/2023 02:11:50 ( 22.70, 164.76)
30 11/24/2023 03:49:44 ( 10.02, 142.40) 11/24/2023 03:53:12 ( 22.24, 139.50)
31 11/24/2023 14:40:07 ( 22.69, 165.01) 11/24/2023 14:43:43 ( 10.01, 161.99)
